CZ-3C DEB, 40855

Orbit data source: Space-Track

CZ-3C DEB, 40855 is space debris in HEO originally from a launch on Fri, 24 Feb 2012 UTC launched from the Xichang Space Center, China (XSC). Debris objects in space refer to the collection of defunct objects orbiting the Earth. Examples of debris include non-operational satellites, rocket bodies, and fragments generated from explosions, collisions, or faulty payload assembly.

Loading next visibility...
Identifier
40855, 2012-008V
Orbit
HEO
Country
Flag of CNCN / PRC
Related business
Manufacturer
CALT
Mission
Spacecraft
Bus & Motor
Unknown
Mass
Unknown
Launch date (UTC)
2012-02-24 (14 years ago)
Launch vehicle
Unknown
Launch site
Xichang Space Center, China (XSC)
Object type
Payload
Rocket body
Debris
Shape & HBR
Unknown shape, 0.2 m
Radar Cross Section
Medium (>0.1 m² and <1 m²)

Expand to show TLE details & history
Last TLE update: 4 days ago

TLE from 4 days ago
0 CZ-3C DEB
1 40855U 12008V   25349.87513027 -.00000184  00000-0 -12855-2 0  9997
2 40855  22.6423  39.6902 7053667 102.2305   8.9861  2.32099727 94083
Epoch: 2025-12-15T21:00Z
TLE epoch observation values (Epoch: 2025-12-15T21:00:11.255Z)
Latitude
5.89943°
Longitude
165.59641°
Altitude
2,759.567 km
Speed
8.408 km/s
True Right ascension
13h 41m 38s
True Declination
5° 52' 19"
Sunlit
Object was in daylight at epoch
Visualization orbit readout
Latitude
Unknown
Longitude
Unknown
Altitude
Unknown
Speed
Unknown
Apparent Right ascension
Unknown
Apparent Declination
Unknown
Sunlit
N/A
Visualization observer readout
Local Sidereal Time
12:29:59
Azimuth
Unknown
Elevation
Unknown
Doppler factor
Unknown
Orbital elements
Apogee altitude
34,721.886 km
Perigee altitude
722.644 km
Semi-major axis
24,100.402 km
Eccentricity
0.70537
Inclination
22.6423°
RAAN
39.6902°
Arg. of periapsis
102.2305°
True anomaly
61.71272°
Mean anomaly
8.9861°
Eccentric anomaly
27.89274°
Mean motion
0.58011 °/min
Orbital period
620.58 mins
BSTAR
-0.0012855
Loading maneuver chart data...
Computing Atmospheric mass density...
Loading historical data...
Loading historical data...
Loading historical data...
Loading historical data...
Loading historical data...
Loading historical data...
Loading historical data...

Documentation

Showing up to 5 results
|